Starlink 35318

operational
NORAD ID: 66146 Int'l Des: 2025-240 Owner: SPXS Country: US Constellation: starlink
LEOCIRCULAR

关于 Starlink 35318

正在加载描述...

实时位置

正在加载3D地球...

即将过境

高度历史

Altitude vs Time

uPlot chart will show altitude changes over time

两行轨道根数

1 66146C 25240B 25298.74840278 .00608680 00000+0 99674-3 0 2989
2 66146 53.1581 338.7854 0009065 271.2409 355.6175 16.01823470 16
Epoch: Oct 25, 2025 • Age: 162 hours

当前状态

高度 244.5 km
速度 7.76 km/s
星下点 -9.88°S, 5.22°W
发射日期 Oct 25, 2025
运行时间 6 days
类型 internet

技术详情

分类 Payload
质量 575.00 kg
干质量 530.00 kg
总质量 575.00 kg
长度 0.30 m
直径 4.10 m
跨度 29.00 m
形状 Box + pan
制造商 SPXS
平台类型 Starlink V2MO
阶段状态 In Orbit
所有者/国家 SPXS/US

大型星座

Loading constellations...